This is the latest recevied weather packets stored in our database for station/object DK8HC-WX. If no packets are shown the sender has not sent any weather packets the latest 10 day(s).
| Time | Temp. | Humidity | Pressure | Rain* | Wind** | Luminosity | Snow |
|---|---|---|---|---|---|---|---|
| 1777543288 | 16.67° C | 37% | 1034.5 hPa | - | - | - | - |
| 1777542688 | 17.22° C | 37% | 1034.7 hPa | - | - | - | - |
| 1777542088 | 16.67° C | 37% | 1034.6 hPa | - | - | - | - |
| 1777541488 | 16.11° C | 37% | 1034.6 hPa | - | - | - | - |
| 1777540888 | 17.22° C | 38% | 1034.8 hPa | - | - | - | - |
| 1777539688 | 15.56° C | 38% | 1034.8 hPa | - | - | - | - |
| 1777539088 | 16.11° C | 39% | 1034.9 hPa | - | - | - | - |
| 1777538488 | 16.67° C | 40% | 1035.1 hPa | - | - | - | - |
| 1777537888 | 16.11° C | 41% | 1035.2 hPa | - | - | - | - |
| 1777537287 | 16.67° C | 41% | 1035.2 hPa | - | - | - | - |
| 1777536688 | 16.11° C | 40% | 1035.3 hPa | - | - | - | - |
| 1777536087 | 16.11° C | 43% | 1035 hPa | - | - | - | - |
| 1777535487 | 16.11° C | 46% | 1035 hPa | - | - | - | - |
| 1777534287 | 15° C | 50% | 1035.3 hPa | - | - | - | - |
| 1777533687 | 16.67° C | 58% | 1035.5 hPa | - | - | - | - |
| 1777533087 | 15° C | 59% | 1035.3 hPa | - | - | - | - |
| 1777532487 | 15.56° C | 63% | 1035.4 hPa | - | - | - | - |
| 1777531887 | 13.89° C | 68% | 1035.2 hPa | - | - | - | - |
| 1777531287 | 12.78° C | 68% | 1035.2 hPa | - | - | - | - |
| 1777530687 | 12.22° C | 67% | 1034.9 hPa | - | - | - | - |
| 1777530087 | 12.78° C | 74% | 1034.4 hPa | - | - | - | - |
| 1777529487 | 11.11° C | 84% | 1034 hPa | - | - | - | - |
| 1777528887 | 11.11° C | 88% | 1033.8 hPa | - | - | - | - |
| 1777528287 | 11.11° C | 92% | 1033.9 hPa | - | - | - | - |
| 1777527687 | 9.44° C | 99% | 1033.7 hPa | - | - | - | - |
* Rain since midnight (hover to see other rain measurements)
** Current wind speed in m/s (hover to see current wind gust speed)